#timestamp,LO_Frequency,Hit,StdDev 
1652396415.2,286047000.7,N
1652396435.1,286047000.0,N
1652396436.0,286047000.0,N
1652396455.8,286046999.8,N
1652396475.6,286046999.8,N
1652396495.5,286047002.3,N
1652396515.3,286047001.6,N
1652396535.2,286047000.1,N
1652396555.9,286047002.0,N
1652396575.7,286047002.1,N
1652396595.6,286047002.4,N
1652396615.4,286047002.4,N
1652396635.2,286047002.0,N
1652396655.1,286047003.1,Y
1652396656.0,286047003.1,P
1652396675.8,286046999.7,N
1652396695.7,286046999.9,N
1652396715.5,286047001.0,N
1652396735.3,286047002.2,N
1652396755.2,286047000.9,N
1652396775.0,286046998.5,N
1652396775.9,286046998.5,N
1652396795.8,286046997.3,N
1652396815.6,286046996.5,N
1652396835.4,286046996.9,N
1652396855.3,286046999.1,N
1652396875.1,286046996.6,N
1652396895.9,286046998.6,N
1652396915.7,286046998.8,N
1652396935.5,286046996.7,N
1652396955.4,286046997.6,N
1652396975.2,286046997.5,N
1652396995.0,286046996.6,N
1652396995.9,286046996.6,N
1652397015.8,286046998.3,N
1652397035.6,286046999.4,N
1652397055.5,286046998.4,N
1652397075.3,286046998.9,N
1652397095.1,286046998.8,N
1652397115.9,286046998.7,N
1652397135.7,286046998.4,N
1652397155.6,286047001.1,N
1652397175.4,286047000.8,N
1652397195.2,286046998.9,N
1652397215.1,286046999.0,N
1652397216.0,286046999.0,N
1652397235.8,286046998.5,N
1652397255.6,286046997.0,N
1652397275.5,286046999.3,N
1652397295.3,286047000.9,N
1652397315.2,286046998.1,N
1652397335.9,286047001.1,N
1652397355.7,286046998.7,N
1652397375.6,286046999.2,N
1652397395.4,286046998.7,N
1652397415.3,286046997.3,N
1652397435.1,286046997.9,N
1652397436.0,286046997.9,N
1652397455.8,286046997.6,N
1652397475.7,286046995.3,Y
1652397495.5,286046999.6,P
1652397515.4,286046999.6,N
1652397535.2,286046999.3,N
1652397555.0,286046996.9,Y
1652397555.9,286046996.9,P
1652397575.8,286046998.4,N
1652397595.6,286046996.9,P
1652397615.5,286046997.6,N
1652397635.3,286046998.0,N
1652397655.1,286046997.8,N
1652397675.9,286046997.6,Y
1652397695.7,286047000.9,P
1652397715.6,286046998.4,N
1652397735.4,286046998.2,N
1652397755.2,286047001.0,N
1652397775.1,286046998.7,N
1652397776.0,286046998.7,N
1652397795.8,286046999.6,N
1652397815.6,286047000.3,N
1652397835.5,286046998.2,N
1652397855.3,286046998.1,N
1652397875.2,286047000.8,N
1652397895.9,286047001.2,N
1652397915.7,286046997.8,N
1652397935.6,286046997.3,N
1652397955.4,286046996.9,N
1652397975.2,286046999.5,N
1652397995.1,286046996.5,N
1652397996.0,286046996.5,N
1652398015.8,286046998.9,N
1652398035.7,286046998.6,N
1652398055.5,286046998.2,N
1652398075.3,286046999.6,N
1652398095.2,286046996.6,N
1652398115.9,286046999.0,N
1652398135.7,286046998.9,N
1652398155.6,286046998.3,N
1652398175.4,286046998.9,N
1652398195.3,286046997.3,N
1652398215.1,286046996.9,N
1652398216.0,286046996.9,N
1652398235.8,286046996.7,N
1652398255.7,286046996.7,N
1652398275.5,286046997.9,N
1652398295.4,286046995.6,Y
1652398315.2,286046999.5,P
1652398335.0,286046999.2,N
1652398335.9,286046999.2,N
1652398355.8,286046999.6,N
1652398375.6,286046998.4,Y
1652398395.4,286047001.2,P
1652398415.3,286047000.6,N
1652398435.1,286047000.7,N
1652398455.9,286047000.3,N
1652398475.7,286046998.2,N
1652398495.5,286047000.9,N
1652398515.4,286047000.0,N
1652398535.2,286047000.3,N
1652398555.0,286046998.2,N
1652398555.9,286046998.2,N
1652398575.8,286046998.1,N
1652398595.6,286046998.1,N
1652398615.5,286046998.3,N
1652398635.3,286046998.1,N
1652398655.1,286047000.8,N
1652398675.9,286046998.4,N
1652398695.7,286046998.3,N
1652398715.5,286046999.0,N
1652398735.4,286046997.4,N
1652398755.2,286046996.8,N
1652398775.1,286046996.8,N
1652398776.0,286046996.8,N
1652398795.8,286046998.3,N
1652398815.6,286046999.1,N
1652398835.5,286046999.0,N
1652398855.3,286046996.7,N
1652398875.1,286046997.8,N
1652398895.9,286046996.6,N
1652398915.7,286046999.1,N
1652398935.6,286046998.9,N
1652398955.4,286046998.9,N
1652398975.2,286046998.4,N
1652398995.1,286047000.7,N
1652398996.0,286047000.7,N
1652399015.8,286046998.6,N
1652399035.7,286046996.6,N
1652399055.5,286046999.2,N
1652399075.3,286046997.4,N
1652399095.2,286046998.9,N
1652399115.9,286046998.5,N
1652399135.7,286046998.5,N
1652399155.6,286047000.4,N
1652399175.4,286046999.9,N
1652399195.3,286047000.9,N
1652399215.1,286046998.5,N
1652399235.9,286046999.4,N
1652399255.7,286046999.4,N
1652399275.5,286046997.2,N
1652399295.4,286046995.7,Y
1652399315.2,286046995.3,P
1652399335.1,286046997.6,N
1652399336.0,286046997.6,N
1652399355.8,286046997.3,N
1652399375.6,286046997.6,N
1652399395.5,286046997.5,N
1652399415.3,286046999.6,N
1652399435.1,286046999.4,N
1652399455.9,286046998.2,N
1652399475.7,286046997.0,N
1652399495.6,286046999.2,N
1652399515.4,286046998.1,N
1652399535.2,286047000.3,N
1652399555.1,286046999.9,N
1652399556.0,286046999.9,N
1652399575.8,286047000.2,N
1652399595.7,286047002.1,N
1652399615.5,286047002.7,N
1652399635.3,286047002.2,N
1652399655.2,286047002.5,N
1652399675.0,286047000.2,N
1652399675.9,286047000.2,N
1652399695.8,286047002.7,N
1652399715.6,286047002.7,N
1652399735.4,286047002.8,N
1652399755.3,286046999.8,N
1652399775.1,286047002.7,N
1652399795.8,286046999.9,N
1652399815.7,286047002.6,N
1652399835.5,286047002.5,N
1652399855.4,286047004.4,N
1652399875.2,286047001.6,N
1652399895.0,286047002.1,N
1652399895.9,286047002.1,N
1652399915.8,286047002.1,N
1652399935.6,286047001.4,N
1652399955.4,286047001.3,N
1652399975.3,286047001.9,N
1652399995.1,286047001.4,N
